Flag for Canada Weather past 2 weeks in Chilliwack, British Columbia, Canada

Now
43 °F

Quite cool.


Feels Like: 43 °F
Forecast: 44 / 69 °F
Wind: 2 mph from Northwest

Location: Agassiz

Current Time: Apr 18, 2015 at 2:44:20 AM

Latest Report: Apr 18, 2015 at 2:00 AM


Visibility: N/A

Pressure: 30.34 "Hg

Humidity: 90%

Dew point: 40 °F

Location of ChilliwackLocation

Historic Weather in Chilliwack — Graph

°F

Chilliwack temperature yesterday

Maximum temperature yesterday: 66 °F (at 3:00 PM)
Minimum temperature yesterday: 42 °F (at 6:00 AM)
Average temperature yesterday: 55 °F

Past Weeks' High & Low Weather Summary

 TemperatureHumidityPressure
High66 °F (Apr 17, 3:00 PM)99% (Apr 11, 12:00 AM)30.54 "Hg (Apr 11, 12:00 AM)
Low37 °F (Apr 16, 6:00 AM)39% (Apr 7, 4:00 PM)29.67 "Hg (Apr 5, 7:00 PM)
Average49 °F72%30.06 "Hg
* Reported Apr 3 1:00 AM — Apr 18 1:00 AM, Chilliwack, Weather by CustomWeather, © 2015

Note: Actual official high and low records may vary slightly from our data, if they occured in-between our weather recording intervals... More about our weather records

Advertising

Chilliwack weather history for previous 24 hours

 ConditionsComfort  
Time TempWeatherWind HumidityBarometerVisibility
1:00 AM
Sat, Apr 18
45 °FQuite cool.2 mph91%30.33 "HgN/A
12:00 AM45 °FCool.1 mph88%30.32 "HgN/A
11:00 PM
Fri, Apr 17
49 °FCool.2 mph83%30.29 "HgN/A
10:00 PM50 °FCool.5 mph82%30.28 "HgN/A
9:00 PM54 °FCool.No wind73%30.27 "HgN/A
8:00 PM57 °FCool.5 mph69%30.24 "HgN/A
7:00 PM62 °FRefreshingly cool.2 mph57%30.23 "HgN/A
6:00 PM63 °FMild.8 mph46%30.22 "HgN/A
5:00 PM65 °FMild.10 mph54%30.21 "HgN/A
4:00 PM65 °FMild.9 mph49%30.22 "HgN/A
3:00 PM66 °FMild.9 mph48%30.21 "HgN/A
2:00 PM65 °FMild.5 mph55%30.22 "HgN/A
1:00 PM63 °FMild.6 mph56%30.24 "HgN/A
12:00 PM60 °FCool.3 mph64%30.24 "HgN/A
11:00 AM56 °FCool.2 mph68%30.26 "HgN/A
10:00 AM52 °FCool.2 mph73%30.22 "HgN/A
9:00 AM49 °FCool.14 mph80%30.23 "HgN/A
8:00 AM47 °FCool.2 mph88%30.28 "HgN/A
7:00 AM44 °FQuite cool.2 mph97%30.25 "HgN/A
6:00 AM42 °FQuite cool.1 mph95%30.24 "HgN/A
5:00 AM44 °FQuite cool.2 mph89%30.23 "HgN/A
4:00 AM49 °FCool.5 mph77%30.22 "HgN/A
2:00 AM50 °FCool.5 mph78%30.23 "HgN/A
Weather by CustomWeather, © 2015

See weather overviewHow to use our weather pages